Waarnemingen

Advertentie
Mijn weer
Svenska Hogarna A, Zweden (2498): temperatuur & dauwpunt: 09.08.2018 01:00:00 - 15.08.2018 01:00:00 (CEST)Svenska Hogarna A, Zweden (2498): windsnelheid & windstoten: 09.08.2018 01:00:00 - 15.08.2018 01:00:00 (CEST)Svenska Hogarna A, Zweden (2498): windrichting: 09.08.2018 01:00:00 - 15.08.2018 01:00:00 (CEST)Svenska Hogarna A, Zweden (2498): luchtdruk: 09.08.2018 01:00:00 - 15.08.2018 01:00:00 (CEST)Svenska Hogarna A, Zweden (2498): zicht: 09.08.2018 01:00:00 - 15.08.2018 01:00:00 (CEST)Svenska Hogarna A, Zweden (2498): neerslag: 09.08.2018 01:00:00 - 15.08.2018 01:00:00 (CEST)
Datum & Tijd tt [°C] td [°C] ff [km/u] ff [kn] fx [km/u] fx [kn] dd ppp [hPa] vv [km] rr [mm]
15.08.2018 01:00:00 15,2 13,8 22 12 34 19 NO 1008,0 3,4 0,0
15.08.2018 00:00:00 15,0 13,9 24 13 38 21 NO 1008,2 3,8 0,3
14.08.2018 23:00:00 14,7 13,7 31 17 40 22 ONO 1008,4 1,8 0,1
14.08.2018 22:00:00 15,1 13,8 26 14 34 18 ONO 1008,7 2,7 0,0
14.08.2018 21:00:00 15,3 13,5 27 15 37 20 O 1008,9 10 1,1
14.08.2018 20:00:00 16,2 11,8 24 13 29 16 OZO 1008,8 - 0,0
14.08.2018 19:00:00 17,7 8,8 11 6 14 8 OZO 1008,9 10 0,0
14.08.2018 18:00:00 17,7 10,3 10 5 21 11 Z 1009,4 38 0,0
14.08.2018 17:00:00 17,9 11,7 3 2 11 6 ZO 1009,5 11 0,0
14.08.2018 16:00:00 18,2 11,3 7 4 16 9 Z 1009,9 28 0,0
14.08.2018 15:00:00 18,5 11,6 15 8 21 12 Z 1010,3 12 0,0
14.08.2018 14:00:00 18,7 12,2 14 8 22 12 ZZO 1010,3 3,5 0,0
14.08.2018 13:00:00 18,4 11,7 10 6 14 8 ZO 1010,6 2,4 0,0
14.08.2018 12:00:00 18,4 10,5 11 6 14 8 ZZO 1010,7 6 0,0
14.08.2018 11:00:00 18,9 11,9 10 5 15 8 ZZO 1010,8 12 0,0
14.08.2018 10:00:00 18,6 11,9 8 4 12 6 Z 1010,8 27 0,0
14.08.2018 09:00:00 18,2 12,2 7 4 10 5 Z 1010,6 46 0,0
14.08.2018 08:00:00 17,7 12,2 6 4 11 6 Z 1010,6 44 0,0
14.08.2018 07:00:00 16,8 13,5 9 5 13 7 ZZW 1010,7 41 0,0
14.08.2018 06:00:00 16,0 13,3 10 5 16 9 ZW 1010,6 45 0,0
14.08.2018 05:00:00 15,8 13,3 15 8 20 11 ZW 1010,6 50 0,0
14.08.2018 04:00:00 15,9 13,2 15 8 22 12 ZW 1010,4 50 0,0
14.08.2018 03:00:00 15,8 13,5 15 8 23 12 ZZW 1010,5 50 0,0
14.08.2018 02:00:00 15,9 13,6 18 10 22 12 ZW 1010,3 50 0,0
14.08.2018 01:00:00 16,2 13,5 18 10 28 15 WZW 1010,2 50 0,0
14.08.2018 00:00:00 16,2 13,5 22 12 32 17 ZW 1010,0 50 0,0
13.08.2018 23:00:00 16,3 12,8 24 13 34 19 ZW 1010,0 50 0,0
13.08.2018 22:00:00 16,3 12,5 26 14 33 18 ZW 1009,9 50 0,0
13.08.2018 21:00:00 16,4 12,0 26 14 35 19 ZZW 1009,8 48 0,0
13.08.2018 20:00:00 16,8 11,3 27 15 36 19 ZZW 1009,6 49 0,0
13.08.2018 19:00:00 17,4 11,7 27 14 36 20 ZZW 1009,4 43 0,0
13.08.2018 18:00:00 17,7 12,2 26 14 31 17 ZZW 1009,4 42 0,0
13.08.2018 17:00:00 17,9 13,0 24 13 30 16 ZZW 1009,5 46 0,0
13.08.2018 16:00:00 17,8 12,5 19 10 25 14 ZZW 1009,4 38 0,0
13.08.2018 15:00:00 17,6 11,6 21 12 28 15 ZZW 1009,4 49 0,0
13.08.2018 14:00:00 18,2 10,1 17 9 27 15 ZW 1009,7 36 0,0
13.08.2018 13:00:00 17,9 8,5 19 10 26 14 W 1009,4 49 0,0
13.08.2018 12:00:00 16,9 8,8 18 10 28 15 W 1009,5 40 0,0
13.08.2018 11:00:00 16,3 9,2 18 10 26 14 W 1009,4 46 0,0
13.08.2018 10:00:00 15,7 9,1 22 12 29 15 WNW 1009,0 44 0,0
13.08.2018 09:00:00 15,2 9,5 24 13 32 17 WNW 1008,6 50 0,0
13.08.2018 08:00:00 14,1 10,7 27 15 35 19 W 1008,2 48 0,0
13.08.2018 07:00:00 13,9 11,1 27 15 34 19 W 1008,0 47 0,0
13.08.2018 06:00:00 13,8 11,0 27 15 36 19 WNW 1007,6 47 0,0
13.08.2018 05:00:00 13,8 11,0 29 15 44 24 WNW 1007,4 50 0,0
13.08.2018 04:00:00 13,9 11,2 36 19 42 23 WNW 1007,0 50 0,0
13.08.2018 03:00:00 13,9 11,2 36 19 47 25 WNW 1006,7 35 0,0
13.08.2018 02:00:00 14,0 11,3 40 21 48 26 WNW 1006,5 40 0,0
13.08.2018 01:00:00 14,1 11,4 40 22 48 26 WNW 1006,4 50 0,0
13.08.2018 00:00:00 14,1 12,0 39 21 48 26 WNW 1006,2 41 0,0
12.08.2018 23:00:00 14,3 12,3 39 21 47 25 WNW 1005,7 28 1,2
12.08.2018 22:00:00 14,8 12,3 33 18 50 27 NW 1005,4 33 0,0
12.08.2018 21:00:00 15,0 12,3 23 13 44 24 NNW 1004,8 48 5,7
12.08.2018 20:00:00 14,3 12,9 24 13 42 23 WNW 1004,2 8 0,6
12.08.2018 19:00:00 14,9 12,6 36 19 45 24 WNW 1003,8 23 0,0
12.08.2018 18:00:00 15,4 12,7 26 14 37 20 W 1003,4 46 0,0
12.08.2018 17:00:00 16,0 12,0 29 16 35 19 W 1003,4 43 0,0
12.08.2018 16:00:00 16,1 12,8 21 12 36 19 NW 1003,1 44 0,0
12.08.2018 15:00:00 16,0 13,5 20 11 30 16 W 1003,1 50 0,6
12.08.2018 14:00:00 15,8 12,7 27 15 32 17 WNW 1003,1 37 2,2
12.08.2018 13:00:00 16,9 11,0 14 8 26 14 WNW 1002,8 46 0,0
12.08.2018 12:00:00 16,8 13,1 18 10 23 12 W 1002,3 44 0,0
12.08.2018 11:00:00 17,1 12,4 11 6 16 9 WZW 1002,3 43 0,0
12.08.2018 10:00:00 15,7 11,5 7 4 30 16 ZO 1002,2 50 0,0
12.08.2018 09:00:00 14,9 11,7 23 12 31 17 OZO 1002,5 43 0,0
12.08.2018 08:00:00 15,2 11,2 15 8 24 13 ONO 1002,7 50 0,7
12.08.2018 07:00:00 14,8 12,8 17 9 26 14 NO 1003,5 31 1,8
12.08.2018 06:00:00 14,8 12,7 14 7 18 10 NNO 1004,3 6 2,3
12.08.2018 05:00:00 14,7 11,5 10 5 14 7 NNO 1004,9 22 0,0
12.08.2018 04:00:00 14,7 12,0 8 4 11 6 N 1005,9 43 0,0
12.08.2018 03:00:00 14,5 12,4 6 3 19 11 W 1006,9 26 0,4
12.08.2018 02:00:00 14,5 12,4 19 10 45 24 ZZW 1008,1 10 0,1
12.08.2018 01:00:00 16,3 12,1 11 6 36 19 ZZO 1008,4 40 0,0
12.08.2018 00:00:00 17,4 13,5 7 4 12 7 Z 1009,1 41 0,0
11.08.2018 23:00:00 17,3 12,8 10 6 20 11 ZZW 1010,0 46 0,0
11.08.2018 22:00:00 17,5 13,6 16 8 22 12 ZW 1010,9 42 0,0
11.08.2018 21:00:00 17,2 14,3 11 6 29 15 ZW 1011,5 46 0,0
11.08.2018 20:00:00 17,5 13,6 23 13 34 18 ZZW 1012,0 22 0,0
11.08.2018 19:00:00 18,2 13,3 23 13 29 16 Z 1012,4 49 0,0
11.08.2018 18:00:00 18,8 13,4 22 12 34 18 ZZW 1013,0 50 0,0
11.08.2018 17:00:00 19,1 13,3 24 13 35 19 ZZW 1013,5 40 0,0
11.08.2018 16:00:00 18,5 13,6 24 13 37 20 ZZW 1014,0 38 0,0
11.08.2018 15:00:00 18,3 13,0 29 16 41 22 ZZW 1014,6 35 0,0
11.08.2018 14:00:00 18,6 12,6 30 16 41 22 ZZW 1015,2 40 0,0
11.08.2018 13:00:00 18,3 12,3 34 18 46 25 ZZW 1015,4 33 0,0
11.08.2018 12:00:00 18,1 12,5 32 18 45 24 ZZW 1015,8 37 0,0
11.08.2018 11:00:00 18,4 12,4 27 15 39 21 ZZW 1015,8 36 0,0
11.08.2018 10:00:00 18,1 11,4 27 15 38 21 ZW 1015,5 37 0,0
11.08.2018 09:00:00 17,6 10,9 30 16 45 25 ZW 1015,5 42 0,0
11.08.2018 08:00:00 17,2 10,6 35 19 48 26 WZW 1015,3 38 0,0
11.08.2018 07:00:00 17,1 10,5 35 19 49 27 WZW 1015,0 44 0,0
11.08.2018 06:00:00 16,9 11,2 41 22 52 28 ZW 1014,6 39 0,0
11.08.2018 05:00:00 16,9 10,7 37 20 55 30 ZW 1014,2 42 0,0
11.08.2018 04:00:00 17,4 11,0 42 23 61 33 WZW 1014,1 45 0,0
11.08.2018 03:00:00 17,4 11,4 39 21 60 32 WZW 1013,9 46 0,0
11.08.2018 02:00:00 17,8 10,4 44 24 58 31 WZW 1013,6 26 0,0
11.08.2018 01:00:00 18,3 10,9 42 23 57 31 WZW 1013,6 45 0,0
11.08.2018 00:00:00 18,6 11,9 35 19 55 30 WZW 1013,5 42 0,0
10.08.2018 23:00:00 19,4 11,2 46 25 60 32 WZW 1012,6 43 0,0
10.08.2018 22:00:00 19,2 15,5 38 20 47 26 ZW 1012,1 39 0,0
10.08.2018 21:00:00 19,8 14,8 37 20 50 27 ZZW 1011,2 40 0,0
10.08.2018 20:00:00 21,0 15,3 37 20 54 29 ZZW 1010,5 40 0,0
10.08.2018 19:00:00 21,7 16,4 41 22 54 29 ZZW 1010,1 39 0,0
10.08.2018 18:00:00 21,9 16,2 39 21 55 30 ZZW 1009,8 31 0,0
10.08.2018 17:00:00 23,1 18,2 43 23 57 31 ZZW 1009,6 38 0,0
10.08.2018 16:00:00 23,1 19,7 36 19 52 28 Z 1009,6 23 0,0
10.08.2018 15:00:00 23,0 20,0 42 23 58 32 Z 1009,2 16 0,0
10.08.2018 14:00:00 23,5 19,8 48 26 66 35 Z 1009,1 16 0,0
10.08.2018 13:00:00 23,4 20,1 50 27 70 38 Z 1009,4 14 0,0
10.08.2018 12:00:00 23,3 20,4 55 30 72 39 Z 1009,1 16 0,0
10.08.2018 11:00:00 23,4 20,7 41 22 52 28 ZZO 1009,2 5 0,0
10.08.2018 10:00:00 23,2 20,2 44 24 54 29 ZZO 1009,1 7 0,0
10.08.2018 09:00:00 23,5 20,0 42 23 53 29 ZZO 1009,6 8 0,0
10.08.2018 08:00:00 22,9 19,9 37 20 44 24 ZZO 1009,9 - 0,0
10.08.2018 07:00:00 22,5 20,2 27 15 34 18 ZO 1010,5 1,0 0,0
10.08.2018 06:00:00 21,8 20,4 23 12 29 15 ZO 1011,2 1,3 0,0
10.08.2018 05:00:00 21,4 20,4 22 12 31 17 ZO 1012,2 4,3 0,0
10.08.2018 04:00:00 21,5 20,7 23 13 29 16 ZO 1012,9 6 0,0
10.08.2018 03:00:00 21,3 20,6 19 10 23 13 ZO 1013,1 6 0,0
10.08.2018 02:00:00 21,2 20,7 14 8 18 10 ZZO 1013,9 4,0 0,0
10.08.2018 01:00:00 21,3 20,6 16 9 22 12 Z 1014,4 3,0 0,0
10.08.2018 00:00:00 21,4 20,7 16 8 22 12 Z 1014,3 5 0,0
09.08.2018 23:00:00 21,4 20,7 17 9 21 11 ZZO 1014,3 7 0,0
09.08.2018 22:00:00 21,5 20,5 16 8 22 12 Z 1014,7 12 0,0
09.08.2018 21:00:00 21,6 20,2 19 11 26 14 Z 1014,6 19 0,0
09.08.2018 20:00:00 21,9 20,2 22 12 29 16 Z 1014,5 23 0,0
09.08.2018 19:00:00 22,5 20,0 24 13 34 18 Z 1014,2 26 0,0
09.08.2018 18:00:00 22,6 20,1 26 14 34 18 Z 1014,2 20 0,0
09.08.2018 17:00:00 23,1 20,4 27 15 34 18 Z 1014,1 27 0,0
09.08.2018 16:00:00 23,3 20,2 23 12 31 17 ZZW 1014,3 26 0,0
09.08.2018 15:00:00 23,4 20,1 23 13 31 17 Z 1014,2 29 0,0
09.08.2018 14:00:00 23,0 20,3 18 10 26 14 Z 1014,0 27 0,0
09.08.2018 13:00:00 23,3 21,4 17 9 24 13 ZZW 1014,1 24 0,0
09.08.2018 12:00:00 22,1 20,6 16 8 21 11 Z 1013,8 17 0,0
09.08.2018 11:00:00 22,6 21,2 16 9 22 12 Z 1013,7 17 0,0
09.08.2018 10:00:00 21,7 20,7 14 7 - - Z 1013,2 10 0,3
09.08.2018 09:00:00 21,7 20,7 16 9 20 11 Z 1013,0 16 0,0
09.08.2018 08:00:00 21,8 20,4 22 12 31 17 ZO 1013,0 13 0,4
09.08.2018 07:00:00 21,7 20,2 21 11 37 20 ZZO 1012,9 19 0,6
09.08.2018 06:00:00 21,6 20,2 27 15 35 19 ZO 1012,5 10 2,4
09.08.2018 05:00:00 22,0 19,9 24 13 34 18 Z 1013,4 21 0,0
09.08.2018 04:00:00 22,3 19,7 27 15 39 21 Z 1013,3 23 0,0
09.08.2018 03:00:00 22,5 19,7 33 18 45 25 Z 1012,8 27 0,0
09.08.2018 02:00:00 22,6 19,4 36 20 46 25 ZZO 1012,5 34 0,0
09.08.2018 01:00:00 22,6 19,2 36 19 44 24 Z 1013,1 35 0,0

tt = temperatuur
td = dauwpunt
ff = windsnelheid
fx = windstoten
dd = windrichting
ppp = luchtdruk
vv = zicht
rr = neerslag

Weerstations in de omgeving